Location: Buch
(49.7331°N, 12.1098°E)
Time: 01:24:28
(UTC+00:00)

Terra - Pass Details

Date: 12 May 2021
Orbit: 701 x 703 km, 98.2° (Epoch: 23 June)

Event Time Altitude Azimuth Distance (km) Brightness Sun altitude
Exits shadow 22:15:57 15° 236° (SW) 1,863 3.8 -20.9°
Maximum altitude 22:18:10 20° 270° (W) 1,616 3.8 -21.0°
Drops below altitude 10° 22:21:38 10° 316° (NW) 2,182 5.2 -21.1°
Sets 22:24:30 0° 334° (NNW) 3,106 6.5 -21.2°
